ROST FLYPLASS current weather conditions

sailwx.info

Wind from 210 at 6 knots

Air temperature 5.0° C
Visibility: greater than 5.4 NM
Dewpoint 4.0° C
Present weather: Light rain.

Last reported at 2014-Nov-27 18:50 UTC.
Time now 2014-Nov-28 00:20 UTC

Location: N 67°31' E 012°06'.
View on Google Maps.

See reports from other nearby stations

  
Tides and Currents Weather Stations Pressure Air Temp Water Temp Dewpoint Dewpoint Depression Visibility Wind Speed Wind Dir Waves Ship Positions
date/time (UTC)wind fromknots sea level pressurealtimeterstation pressurevisibilityair tempwater tempwave heightnotes
2014-Nov-27 18:50 210 6 5.4 5.0 Light rain.
2014-Nov-27 18:20 220 7 5.4 5.0 Light rain.
2014-Nov-27 17:50 230 7 5.4 5.0 Light rain.
2014-Nov-27 17:20 270 12 5.4 5.0 Light rain.
2014-Nov-27 16:50 220 11 5.4 6.0
2014-Nov-27 16:20 240 11 5.4 6.0 Light rain.
2014-Nov-27 15:50 240 11 5.4 6.0 Light rain.
2014-Nov-27 15:20 250 13 5.4 6.0 Light rain.
2014-Nov-27 14:50 240 18 5.4 6.0 Light rain.
2014-Nov-27 14:20 240 15 5.4 6.0 Rain.
2014-Nov-27 12:20 200 27 gusting 39 5.4 7.0 Rain.
2014-Nov-27 11:50 190 27 5.4 7.0 Rain.
2014-Nov-27 11:20 190 27 5.4 7.0 Rain.
2014-Nov-27 10:20 180 26 5.4 7.0 Rain.
2014-Nov-27 09:50 180 27 5.4 6.0 Rain.
2014-Nov-27 09:20 180 26 5.4 7.0 Rain.
2014-Nov-27 07:20 180 27 5.4 7.0 Light rain.
2014-Nov-27 06:50 180 25 5.4 7.0
2014-Nov-27 06:20 180 23 7.0
2014-Nov-27 05:50 180 22 5.4 6.0
2014-Nov-26 19:20 180 14 5.4 7.0
2014-Nov-26 18:50 180 15 5.4 7.0
2014-Nov-26 17:50 190 13 5.4 7.0
2014-Nov-26 17:20 200 14 5.4 7.0
2014-Nov-26 16:50 200 11 5.4 7.0
2014-Nov-26 16:20 220 11 5.4 6.0
2014-Nov-26 15:50 190 12 5.4 6.0
2014-Nov-26 15:20 190 11 5.4 6.0
2014-Nov-26 14:50 210 13 5.4 6.0 Light rain showers.
2014-Nov-26 13:50 190 13 5.4 6.0 Showers in the vicinity.
2014-Nov-26 12:50 230 13 5.4 6.0 Showers in the vicinity.
2014-Nov-26 10:50 240 14 5.4 8.0
2014-Nov-26 10:20 240 15 5.4 8.0
2014-Nov-26 09:50 240 13 5.4 8.0
2014-Nov-26 09:20 250 15 5.4 8.0
2014-Nov-26 08:50 240 15 5.4 8.0
2014-Nov-26 07:50 250 15 5.4 7.0 Rain showers.
2014-Nov-26 07:20 260 19 5.4 7.0
2014-Nov-26 06:50 260 18 5.4 8.0 Showers in the vicinity.
2014-Nov-26 06:20 250 18 5.4 7.0 Rain.
2014-Nov-26 05:50 270 20 5.4 7.0 Rain.